Weather History for Henderson, NV

Change the Weather History Date:

Tuesday, September 17, 2013

  Actual Average (KLAS) Record (KLAS)
Temperature  
Mean Temperature 86 °F 82 °F  
Max Temperature 99 °F 94 °F 108 °F (1937)
Min Temperature 74 °F 71 °F 53 °F (1941)
Degree Days  
Heating Degree Days 0 0  
Month to date heating degree days 0  
Since 1 July heating degree days 0  
Cooling Degree Days 22 17  
Month to date cooling degree days 343  
Year to date cooling degree days 3192  
Growing Degree Days 36 (Base 50)    
Moisture  
Dew Point 36 °F    
Average Humidity 18    
Maximum Humidity 32    
Minimum Humidity 8    
Precipitation  
Precipitation 0.00 in 0.00 in 0.34 in (1940)
Month to date precipitation 0.16  
Year to date precipitation 2.97  
Snow  
Snow 0.00 in 0.00 in 0.00 in ()
Month to date snowfall 0.0  
Since 1 July snowfall 0.0  
Since 1 September snowfall 0.0  
Snow Depth -    
Sea Level Pressure  
Sea Level Pressure 29.65 in    
Wind  
Wind Speed 12 mph (SSW)    
Max Wind Speed 30 mph    
Max Gust Speed 37 mph    
Visibility 10 miles    
Events Rain    
T = Trace of Precipitation, MM = Missing Value Source: NWS Daily Summary

Daily Weather History Graph

Daily Weather History Graph

Search for Another Location

Airport:

Trip Planner

Search our weather history database for the weather conditions in past years. The results will help you decide how hot, cold, wet, or windy it might be!

Date:

Astronomy

Sep. 17, 2013 Rise Set
Actual Time 6:24 AM PDT 6:44 PM PDT
Civil Twilight 5:59 AM PDT 7:09 PM PDT
Nautical Twilight 5:29 AM PDT 7:39 PM PDT
Astronomical Twilight 4:58 AM PDT 8:10 PM PDT
Moon 5:32 PM PDT (9/17) 4:26 AM PDT (9/17)
Length of Visible Light 13h 10m
Length of Day
12h 19m
Waxing Gibbous, 96% of the Moon is Illuminated
Sep 17
Waxing Gibbous
Sep 19
Full
Sep 26
Last Quarter
Oct 4
New
Oct 11
First Quarter

Hourly Weather History & Observations

Time (PDT) Temp. Dew Point Humidity Pressure Visibility Wind Dir Wind Speed Gust Speed Precip Events Conditions
12:56 AM 81.9 °F 43.9 °F 26% 29.73 in 10.0 mi South 6.9 mph - 0.00 in Rain Heavy Rain
1:56 AM 77.9 °F 45.0 °F 31% 29.72 in 10.0 mi South 5.8 mph - 0.00 in   Clear
2:56 AM 77.9 °F 43.9 °F 30% 29.71 in 10.0 mi South 5.8 mph - 0.00 in Rain Heavy Rain
3:56 AM 77.9 °F 43.0 °F 29% 29.70 in 10.0 mi South 8.1 mph - 0.00 in   Clear
4:56 AM 79.0 °F 43.0 °F 28% 29.70 in 10.0 mi South 10.4 mph - 0.00 in Rain Heavy Rain
5:56 AM 77.0 °F 43.0 °F 30% 29.72 in 10.0 mi South 10.4 mph - 0.00 in   Clear
6:56 AM 74.8 °F 43.0 °F 32% 29.74 in 10.0 mi South 9.2 mph - N/A   Clear
7:56 AM 79.0 °F 43.9 °F 29% 29.74 in 10.0 mi South 9.2 mph - N/A   Clear
8:56 AM 86.0 °F 41.9 °F 21% 29.72 in 10.0 mi SSE 5.8 mph - N/A   Clear
9:56 AM 90.9 °F 39.9 °F 17% 29.71 in 10.0 mi SSW 12.7 mph - N/A   Clear
10:56 AM 93.9 °F 38.8 °F 15% 29.70 in 10.0 mi SSW 18.4 mph - N/A   Clear
11:56 AM 95.9 °F 39.9 °F 14% 29.68 in 10.0 mi SSW 17.3 mph 27.6 mph N/A   Clear
12:56 PM 99.0 °F 36.9 °F 12% 29.62 in 10.0 mi SSW 29.9 mph 35.7 mph N/A   Clear
1:56 PM 99.0 °F 34.9 °F 11% 29.60 in 10.0 mi SSW 26.5 mph 36.8 mph N/A   Clear
2:56 PM 99.9 °F 30.0 °F 9% 29.57 in 10.0 mi SW 24.2 mph 34.5 mph N/A   Clear
3:56 PM 99.0 °F 28.0 °F 8% 29.56 in 10.0 mi SSW 25.3 mph 31.1 mph N/A   Clear
4:56 PM 97.9 °F 27.1 °F 8% 29.55 in 10.0 mi SSW 19.6 mph 26.5 mph N/A   Clear
5:56 PM 95.9 °F 28.0 °F 9% 29.55 in 10.0 mi SW 16.1 mph - N/A   Clear
6:56 PM 90.9 °F 30.0 °F 11% 29.56 in 10.0 mi SSW 8.1 mph - N/A   Clear
7:56 PM 90.9 °F 31.1 °F 12% 29.56 in 10.0 mi SSW 16.1 mph - N/A   Clear
8:56 PM 86.0 °F 27.1 °F 12% 29.59 in 10.0 mi SSW 9.2 mph - N/A   Clear
9:56 PM 84.9 °F 22.1 °F 10% 29.60 in 10.0 mi SSW 15.0 mph - N/A   Clear
10:56 PM 82.9 °F 22.1 °F 11% 29.61 in 10.0 mi SW 16.1 mph - N/A   Clear
11:56 PM 81.0 °F 29.1 °F 15% 29.60 in 7.0 mi SSW 21.9 mph - N/A   Clear